Regional Weather Roundup
Issued by NWS

Home | Current Version | Previous Version | Text Only | Print | Product List | Glossary Off
Versions: 1 2 3 4 5 6 7 8 9 10 11 12 13 14 15 16 17 18 19 20 21 22 23 24 25 26 27 28 29 30 31 32 33 34 35 36 37 38 39 40 41 42 43 44 45 46 47 48 49 50

000
ASUS45 KTFX 272204
RWRMT
MONTANA HOURLY WEATHER ROUNDUP
NATIONAL WEATHER SERVICE GREAT FALLS MT
304 PM MST FRI FEB 27 2015

NOTE: "FAIR" INDICATES FEW OR NO CLOUDS BELOW 12000 FEET WITH NO
SIGNIFICANT WEATHER AND/OR OBSTRUCTIONS TO VISIBILITY.

* THESE STATIONS ARE NOT UNDER NWS QUALITY CONTROL. THEY DO NOT
   REPORT WEATHER SUCH AS PRECIPITATION OR FOG.

MTZ001>007-043-272300-
WEST OF THE DIVIDE
CITY           SKY/WX    TMP DP  RH WIND       PRES   REMARKS
KALISPELL      PTCLDY    37  10  33 NE21G26   29.90S WCI  26
MISSOULA       CLOUDY    39   9  29 E16       29.83F WCI  30
BUTTE          CLOUDY    30  10  43 SE8G16    29.76S WCI  22
MULLAN PASS    PTCLDY    25  16  69 CALM      29.71F
* ANACONDA     PTCLDY    27  12  53 N6         N/A   WCI  20
* ESSEX        N/A       26   7  44 NE8G18     N/A   WCI  18
* LINCOLN      N/A       24   8  50 NE17G27    N/A   WCI  11
* LOOKOUT PASS N/A       32  17  54 NW5        N/A   WCI  27
* POLSON       N/A       35  13  40 N3         N/A
* RONAN APT    PTSUNNY   37  18  46 NW11       N/A   WCI  29
* SEELEY LAKE  N/A       34  11  38 NW4G9      N/A
* THOMP F APT  PTCLDY    31  15  51 S5G10      N/A   WCI  26
$$

MTZ008-052>055-272300-
SOUTHWEST MONTANA
CITY           SKY/WX    TMP DP  RH WIND       PRES   REMARKS
BOZEMAN        CLOUDY    27  10  49 W7        29.86S WCI  19
DILLON         CLOUDY    30  10  43 NE12      29.75F WCI  20
* W YELLOWSTON PTCLDY    32   6  33 NW3        N/A
* THREE FORKS  SUNNY     27  10  49 NW6        N/A   WCI  20
* BOULDER HILL N/A       17   7  65 N17G24     N/A   WCI   1
* MONIDA PASS  N/A       29  12  49 NE6G11     N/A   WCI  23
* RAYNOLDS PAS N/A       19  18  96 N12        N/A   WCI   6
* WHITEHALL    N/A       30  11  45 E13G21     N/A   WCI  20
* WISE RIVER   N/A       30   8  39 SE12G19    N/A   WCI  20
$$

MTZ009>010-012-014-046-048-049-054-272300-
EAST SLOPES AND CENTRAL MONTANA
CITY           SKY/WX    TMP DP  RH WIND       PRES   REMARKS
CUT BANK       LGT SNOW  18  10  71 N18       30.02S VSB 2    WCI   2
GREAT FALLS    CLOUDY    19  12  74 NW5       30.01R VSB 3    WCI  12
HELENA         PTCLDY    27  10  49 N15G21    29.95R WCI  15
* DEARBORN     N/A       20  10  65 VRB7       N/A   WCI  11
* EAST GLACIER N/A       14   7  73 E16G22     N/A   WCI  -2
* MONARCH      N/A       10   4  76 NW17       N/A   WCI  -8
* PENDROY      N/A       16  11  81 VRB18G26    N/A
* ROGERS PASS  N/A       13   8  80 SE4G11     N/A
* SWEET GRASS  N/A       14  10  84 N17G23     N/A   WCI  -2
$$

MTZ011-013-016-021-035-040-045-047-050-051-272300-
NORTH CENTRAL MONTANA
CITY           SKY/WX    TMP DP  RH WIND       PRES   REMARKS
HAVRE          PTSUNNY   23   3  42 W8        30.04S WCI  14
LEWISTOWN      PTCLDY    18   9  68 NW13      29.95R WCI   5
* N BAR RANCH  SUNNY     19   5  54 NW17      29.90R WCI   4
* CHESTER      N/A       24   9  53 SE3G10     N/A
* DENTON       N/A       16   8  71 NW12G17    N/A   WCI   3
* GEYSER       N/A       15   9  77 W22G27     N/A   WCI  -3
* JUDITH GAP   N/A       16   9  74 N23G29     N/A   WCI  -2
* LOMA         N/A       21   9  60 W6         N/A   WCI  13
$$

MTZ017>020-022>027-061-062-272300-
NORTHEAST MONTANA
CITY           SKY/WX    TMP DP  RH WIND       PRES   REMARKS
GLASGOW        PTSUNNY   21   5  50 CALM      30.02S
GLENDIVE       SUNNY     28   7  41 S14G20    30.01F WCI  17
JORDAN         PTCLDY    25  10  53 W12       29.99R WCI  14
SIDNEY         SUNNY     28   5  37 S9G18     30.07F WCI  19
WOLF POINT     PTSUNNY   27   9  46 S5        30.04S WCI  21
* BEAVER HILL  N/A       24   7  48 SE16G26    N/A   WCI  11
* CIRCLE       N/A       26  11  53 S7         N/A   WCI  18
* LINDSAY DVD  N/A       23   5  46 S11        N/A   WCI  12
* NAVAJO       N/A       20   4  50 S10        N/A   WCI   9
* SACO         N/A       20   3  47 NW5G11     N/A   WCI  13
$$

MTZ028>042-056>058-272300-
SOUTHCENTRAL AND SOUTHEAST MONTANA
CITY           SKY/WX    TMP DP  RH WIND       PRES   REMARKS
BAKER          SUNNY     25   9  50 SE13      30.01S WCI  13
BILLINGS       PTCLDY    27   9  46 VRB3      29.90F
LIVINGSTON     CLOUDY    28  10  47 CALM      29.83S
MILES CITY     SUNNY     25  10  53 S7        29.99S WCI  17
* LAUREL APT   PTCLDY    30   7  38 SW6        N/A   WCI  24
* ROUNDUP APT  PTCLDY    25   0  33 N8         N/A   WCI  16
* ALZADA       N/A       23   8  52 E9         N/A   WCI  13
* HYSHAM       N/A       25   4  40 E2         N/A
* LAME DEER    N/A       20  10  65 N/A        N/A
* REED POINT   N/A       28  13  53 SE3        N/A
$$

REGIONAL REPORTS...DAKOTAS
CITY           SKY/WX    TMP DP  RH WIND       PRES   REMARKS
WILLISTON      PTCLDY    25   5  42 SE10      30.07F WCI  15
DICKINSON      SUNNY     25   5  42 S18       30.04F WCI  11
BEACH          SUNNY     25   7  46 S16       30.02F WCI  12
CROSBY         SUNNY     18   5  57 S12       30.10F WCI   5
WATFORD CITY   SUNNY     25   5  42 S14G20    30.05F WCI  13
BISMARCK       SUNNY     19   5  54 S15       30.24F WCI   5
GRAND FORKS    SUNNY     18   3  52 SW12      30.37F WCI   5
FARGO          SUNNY     18   1  47 SW8       30.42F WCI   8
BUFFALO SD     SUNNY     27  10  49 S18       29.94S WCI  14
RAPID CITY     CLOUDY    23  12  63 S22       30.03F WCI   8
$$

REGIONAL REPORTS...WYOMING/IDAHO/WASHINGTON
CITY           SKY/WX    TMP DP  RH WIND       PRES   REMARKS
GILLETTE       SUNNY     23  10  57 S13       29.87S WCI  11
SHERIDAN       PTCLDY    16   5  62 W6        29.90R WCI   7
CODY           PTCLDY    19  10  68 CALM      29.82S
YELLOWSTONE LA PTCLDY    18  10  71 CALM      29.70S
SALMON         CLOUDY    37  21  52 NE5       29.71F WCI  33
MULLAN PASS    PTCLDY    25  16  69 CALM      29.71S
SAND POINT     PTSUNNY   45  23  42 NE16G24   29.83F
SPOKANE        PTSUNNY   46  23  40 NE9       29.76F

$$




USA.gov is the U.S. government's official web portal to all federal, state and local government web resources and services.